Theta_e
344 344 343 340 335 332 329 328 326 325 324 322 321 321 320 320 320 322 320 319 318 317 317 315 314 315 312 311 311 311 311 311 307 310 313 317 318 320 322 325 327 329 333
344 343 340 336 333 329 328 326 325 322 322 321 319 319 318 318 320 319 318 317 315 314 313 313 312 311 313 313 311 313 312 314 311 311 314 314 316 320 322 323 324 326 330
342 340 336 333 330 328 327 325 324 322 321 319 319 317 316 318 317 317 317 315 314 314 313 312 311 311 310 311 312 312 312 313 313 311 311 313 315 317 318 320 321 326 326
336 336 332 330 329 327 326 324 323 321 319 319 320 317 317 315 316 316 315 315 313 312 312 312 311 310 310 311 310 311 311 311 311 311 311 311 313 318 316 312 313 318 324
334 331 330 329 328 327 324 321 322 320 320 320 318 317 316 315 311 313 314 312 312 311 311 310 311 308 304 305 305 307 308 308 307 308 308 310 311 309 310 311 310 314 319
331 329 328 327 325 324 323 321 321 320 318 315 313 314 314 313 304 303 304 308 309 309 309 310 310 308 308 304 303 302 303 304 304 305 306 306 308 308 308 308 308 309 306
327 326 323 324 324 322 321 320 319 318 317 315 314 312 310 308 301 301 302 306 307 308 308 308 308 307 305 308 306 305 305 304 304 305 304 304 304 305 306 307 308 307 307
322 322 322 321 321 320 319 315 314 313 311 307 305 304 305 303 299 298 299 304 306 307 306 306 307 308 307 305 305 305 305 306 305 304 305 305 304 304 305 306 306 307 309
312 315 315 316 310 307 307 303 304 304 301 301 300 300 299 300 299 297 298 303 304 305 305 306 306 306 302 299 303 301 303 304 305 303 301 300 298 297 299 303 302 303 304
303 303 302 302 300 299 299 299 300 299 298 299 298 299 300 300 299 298 297 302 301 302 306 305 303 302 299 298 301 300 298 300 300 300 301 302 301 302 300 305 305 303 304
298 298 297 297 296 297 297 298 297 297 298 297 298 301 302 303 302 297 296 301 301 301 302 303 304 297 296 296 295 300 299 299 300 300 299 299 301 303 305 308 309 306 305
295 295 295 296 297 297 297 297 297 298 298 298 300 301 303 303 300 298 295 294 296 299 299 300 301 294 294 295 296 297 295 296 298 298 298 297 298 299 302 303 308 308 309
295 295 294 296 296 297 297 298 299 301 301 301 301 301 302 302 302 295 294 293 294 296 298 297 294 294 294 295 295 295 295 299 298 297 297 297 297 299 300 303 305 309 309
294 295 298 300 297 298 299 300 298 297 299 298 298 298 298 298 298 297 296 296 295 295 295 295 293 293 293 294 295 297 299 299 298 298 298 298 298 297 297 300 300 302 303
297 297 296 298 299 298 298 298 298 298 294 295 296 295 294 295 295 291 291 292 293 292 290 293 294 296 296 296 297 296 296 297 295 298 297 297 296 296 296 299 300 300 300
295 293 295 298 298 299 298 297 292 292 291 291 290 291 293 292 290 290 290 290 289 289 291 293 294 293 292 292 292 293 294 294 295 296 297 296 295 295 295 297 299 300 300
294 294 295 295 295 297 297 296 296 295 292 291 290 290 290 290 290 289 289 289 288 289 293 295 292 291 291 291 291 291 291 293 296 295 296 296 296 297 295 296 297 299 300
294 292 294 294 293 294 295 296 297 296 294 295 292 291 291 289 289 289 288 289 295 293 294 292 292 293 292 291 291 291 292 292 294 294 295 296 296 296 295 295 297 298 300
296 294 294 294 294 294 295 295 295 295 296 294 295 294 292 290 289 289 289 291 291 291 292 292 293 293 292 292 291 291 291 292 292 294 294 295 296 296 295 296 297 292 295
297 291 292 294 294 294 294 294 294 294 295 294 293 292 292 290 291 292 291 292 291 291 291 291 293 293 292 291 291 291 291 292 291 294 294 295 296 296 295 296 297 298 300
296 297 288 294 293 293 293 293 294 293 293 293 292 292 285 288 289 290 290 291 291 290 290 291 292 292 291 291 291 291 291 292 292 293 294 295 296 295 297 297 297 298 300
296 296 295 294 293 292 292 293 293 293 293 292 293 292 286 290 290 289 290 290 290 290 291 291 290 291 291 291 290 291 290 290 291 293 294 295 295 296 296 297 297 298 299
296 295 294 294 293 290 292 293 293 293 292 292 293 290 290 289 289 289 289 290 290 290 291 290 290 290 291 291 291 291 290 290 292 295 290 294 294 296 297 296 297 297 298
295 294 293 293 292 292 292 292 292 290 291 292 291 290 289 289 288 288 289 289 289 290 290 290 290 290 291 291 291 292 292 292 293 292 294 293 294 294 295 296 296 298 298
294 293 292 292 292 292 291 291 292 292 291 291 290 289 289 289 288 288 289 289 289 289 290 290 290 290 290 290 291 291 290 286 289 288 292 292 294 294 295 296 297 298 299
295 293 292 292 292 292 291 291 291 291 291 290 290 289 289 288 288 288 288 289 289 288 289 290 290 289 289 289 290 288 286 286 287 286 291 291 293 295 295 297 296 297 299
Wind_Speed
15 15 16 14 16 16 13 14 13 12 13 13 11 10 9 6 4 2 3 3 2 3 4 5 6 6 6 7 6 6 7 8 11 11 11 10 13 11 11 10 10 9 7
14 14 17 15 16 16 15 15 15 13 11 11 10 8 8 6 5 4 1 2 3 4 5 6 7 6 8 8 7 8 8 8 9 13 12 10 11 11 10 13 9 9 8
14 15 15 16 16 16 16 16 15 14 13 11 8 8 7 6 4 3 2 3 5 6 6 8 9 8 9 8 9 9 9 8 8 10 10 9 9 9 8 11 9 10 5
12 14 14 14 14 14 14 14 13 11 11 11 10 8 6 5 3 2 3 3 5 6 7 7 9 10 10 11 9 9 9 10 11 10 9 8 8 10 7 9 10 8 6
13 13 13 13 12 13 13 14 13 12 10 9 10 8 6 3 4 5 5 5 6 8 9 9 9 8 9 7 8 10 11 10 11 11 9 9 8 8 7 8 9 9 7
11 13 13 12 13 14 14 14 12 12 11 10 9 8 6 2 9 4 5 7 8 8 9 9 8 7 12 11 8 5 8 9 12 11 10 8 9 9 7 8 11 8 7
12 12 12 14 14 14 14 14 13 13 12 10 8 6 6 6 9 6 6 8 10 9 9 10 10 8 3 12 7 10 14 13 9 10 12 10 9 8 10 11 10 11 10
11 11 11 11 12 14 13 11 10 10 10 9 8 8 6 5 5 3 5 8 10 11 10 11 11 11 9 8 12 14 13 11 7 6 9 9 8 10 12 11 13 14 14
10 9 9 12 14 13 14 13 10 9 8 8 6 4 4 4 4 5 4 9 9 11 11 11 12 12 8 6 9 14 14 12 6 8 9 9 10 11 12 9 11 12 11
12 12 12 12 12 11 12 10 9 9 7 4 3 2 6 6 4 2 5 9 10 9 11 11 10 13 8 5 10 12 12 11 10 10 11 11 12 14 21 13 11 12 11
16 17 16 14 15 12 10 10 7 6 5 3 1 2 4 6 7 4 2 9 9 9 10 10 8 12 10 8 7 13 13 8 12 13 11 9 11 12 10 9 9 9 10
16 17 14 11 9 7 8 5 5 2 1 1 3 4 4 6 9 3 4 5 10 11 12 10 8 15 10 9 11 12 8 10 12 12 9 9 9 9 9 10 11 6 11
15 14 12 7 8 5 6 5 2 3 3 4 4 3 3 4 4 10 2 5 11 10 11 13 15 13 14 14 18 17 12 11 10 9 9 9 9 8 9 12 13 13 13
13 12 11 12 6 8 7 5 5 4 4 4 5 5 4 5 6 4 5 7 9 9 10 10 13 17 21 20 14 12 10 10 8 9 9 9 8 7 9 10 9 8 8
13 11 7 8 9 6 5 6 6 6 6 6 5 7 7 7 6 8 8 9 10 11 13 11 8 7 8 8 8 8 8 8 7 8 9 8 9 8 9 10 9 8 8
12 7 9 9 6 3 5 5 5 3 3 4 6 6 7 10 6 10 12 14 15 14 10 9 8 6 7 7 8 8 8 7 7 7 8 8 9 8 8 9 8 8 7
12 10 7 7 7 7 6 5 6 4 10 10 8 7 8 9 11 12 13 13 17 12 9 8 7 6 7 7 7 8 8 9 8 7 9 8 8 8 7 9 9 7 7
12 9 8 8 9 7 7 6 5 4 6 6 6 7 4 8 11 14 14 13 8 6 7 7 8 9 7 7 7 8 7 8 8 8 8 8 8 8 8 8 8 7 6
10 10 9 7 7 5 6 7 7 7 6 6 7 5 3 7 13 13 11 7 7 7 7 8 8 8 8 7 7 8 9 8 8 7 8 7 8 7 8 8 8 5 5
8 10 7 8 7 8 7 8 8 8 8 8 8 9 9 11 10 9 8 8 7 8 7 9 9 8 8 7 8 8 9 10 6 8 7 8 7 7 7 8 8 7 7
8 8 5 9 9 9 9 9 8 8 9 8 8 8 5 10 10 9 9 9 9 8 9 9 10 9 8 8 9 9 9 9 9 7 6 8 6 6 7 7 7 6 7
10 10 9 8 8 9 8 8 9 9 10 11 10 10 7 9 9 9 10 10 9 9 8 9 10 9 9 8 9 9 9 10 9 7 9 6 8 7 6 6 6 7 6
12 12 11 10 9 10 10 11 11 11 12 12 11 11 11 10 10 10 11 10 10 9 9 9 10 9 9 9 9 9 9 9 9 10 6 6 6 6 6 6 6 6 6
13 13 12 11 10 11 11 11 11 11 12 12 11 12 12 11 11 12 11 11 10 10 10 10 10 13 11 11 9 9 10 10 8 8 10 9 7 5 5 5 6 8 7
11 12 11 11 10 10 11 11 11 12 11 12 11 11 12 12 12 12 11 10 11 11 12 12 11 13 15 15 14 14 12 5 9 8 8 9 10 10 9 5 7 6 8
11 11 10 9 9 10 10 11 11 12 12 12 10 11 12 12 12 12 12 12 11 12 16 11 12 16 18 15 15 12 7 7 9 11 11 9 9 9 6 7 8 5 5
Wind_Direction
176 175 172 166 157 155 150 146 149 153 156 154 151 142 138 131 138 132 59 57 15 355 330 328 320 323 327 308 310 292 297 291 292 303 312 316 313 313 321 325 312 324 316
177 173 170 164 152 147 149 153 155 157 154 150 145 149 131 133 163 138 108 39 327 319 318 309 305 328 314 303 307 303 309 297 293 301 306 308 308 321 319 322 328 314 321
181 171 158 159 156 151 154 153 158 152 153 151 159 139 120 147 155 112 47 358 337 328 322 312 315 319 311 320 313 309 305 301 297 293 303 298 318 310 334 325 332 309 339
173 166 159 158 154 154 153 154 152 154 147 162 147 128 130 150 100 40 30 344 318 311 296 301 308 310 314 322 310 309 305 318 296 284 294 304 303 23 336 332 324 325 7
174 166 161 153 155 150 152 162 152 148 159 147 129 118 137 138 52 5 337 319 319 312 312 307 303 356 326 314 312 334 322 316 313 309 319 318 344 358 338 325 319 328 316
175 168 159 156 153 163 159 155 156 150 143 132 135 150 145 83 69 39 331 324 317 308 309 308 305 264 247 229 234 271 301 306 306 313 307 314 315 312 330 329 311 332 321
178 165 158 167 166 162 160 158 156 147 142 133 109 80 55 27 51 10 353 301 307 302 301 301 297 303 272 289 259 227 252 231 249 302 294 317 325 342 321 311 318 309 299
180 163 157 161 163 163 154 126 117 118 113 105 103 87 48 41 56 1 312 287 286 287 291 283 281 279 282 306 304 303 297 298 294 264 296 300 303 322 306 301 297 287 272
96 112 116 125 113 116 114 116 112 100 82 78 73 65 64 345 300 258 304 282 273 282 278 276 281 288 309 146 285 290 293 293 287 223 268 278 253 237 255 291 279 290 295
82 79 79 85 91 103 107 101 99 98 92 97 105 229 215 245 242 280 296 293 296 294 287 280 245 247 255 207 276 281 285 296 312 312 304 291 268 251 233 245 271 271 279
76 73 63 62 74 69 64 70 71 86 118 134 210 297 304 301 290 225 295 289 295 297 301 297 298 55 4 330 288 281 282 319 294 289 289 295 293 281 277 262 259 279 280
76 78 76 72 78 72 89 89 85 75 62 1 300 280 235 245 228 160 56 23 335 290 287 286 310 350 328 307 289 280 306 297 279 279 282 286 284 291 294 296 310 292 287
67 67 74 77 88 92 81 88 91 32 340 326 311 279 294 358 315 102 74 330 307 294 292 316 312 292 286 278 254 249 263 265 270 277 278 280 280 287 288 282 272 255 254
71 62 65 69 62 52 45 47 55 4 345 353 335 316 313 309 309 326 320 312 290 285 304 300 300 285 267 263 273 266 263 263 286 281 280 280 286 277 273 277 274 292 268
61 60 56 58 51 54 53 31 43 58 9 343 345 335 325 321 351 348 323 312 310 314 313 286 282 288 306 311 305 303 292 288 284 276 274 278 278 271 266 272 264 267 271
58 52 28 60 50 27 30 81 142 130 195 260 269 284 317 298 307 316 299 285 276 276 284 285 292 314 301 304 305 309 295 297 288 288 282 271 270 268 268 272 269 261 262
46 33 38 44 30 20 32 21 7 175 209 222 234 257 267 287 296 289 286 288 270 260 263 294 302 300 297 297 299 295 304 301 294 266 269 265 266 267 266 267 259 260 256
33 31 22 24 30 2 4 358 351 4 343 340 215 225 270 277 282 284 292 295 283 229 277 293 304 301 296 292 297 301 303 296 286 283 276 267 263 263 265 262 263 256 262
27 22 6 15 30 344 354 350 350 352 347 344 332 315 357 328 292 276 260 287 297 293 304 305 295 293 297 299 294 291 287 280 283 283 269 267 269 261 261 263 269 274 287
37 64 360 5 6 6 355 351 349 345 352 354 341 334 329 330 330 328 319 307 303 299 301 297 294 289 291 293 288 276 275 284 269 262 273 265 259 254 261 269 268 266 257
14 20 12 11 5 0 358 344 345 344 344 344 336 336 345 321 311 312 313 308 303 301 301 298 292 291 291 287 283 281 276 274 280 275 266 271 256 261 252 253 264 264 264
16 13 12 9 360 359 344 345 347 347 343 339 343 337 318 312 319 315 310 306 305 300 296 291 288 286 286 281 276 275 271 275 275 259 282 250 259 251 253 250 255 252 253
10 7 4 3 1 348 351 355 349 350 339 336 339 332 329 321 314 313 311 306 304 300 295 290 286 285 280 276 273 271 266 265 267 283 276 275 281 256 237 246 241 246 239
3 0 357 358 3 344 353 342 344 337 332 332 336 323 319 318 312 312 309 308 307 303 300 295 290 287 285 281 270 265 262 259 268 275 269 287 253 258 239 251 257 242 245
0 359 356 355 351 349 343 343 336 334 331 329 331 324 321 318 316 316 312 311 309 305 300 299 292 291 287 281 272 267 265 246 256 274 280 279 272 232 255 225 276 246 234
1 2 358 354 349 346 341 336 334 332 332 327 328 323 321 319 317 315 313 313 312 309 303 295 291 287 286 283 275 272 254 241 244 235 250 253 260 256 233 225 259 287 248